N2ADK Weather Reports


Display with metric or nautical units.
time (UTC)temp
F
wind
direction
speed
MPH
gust
MPH
rain 1hr
in
rain 24hr
in
rain mn
in
humidity
%
barometer
mb
20260502170518 46 0 0.0 0.0 0.00 0.15 0.03 66 1013.4
20260502164017 46 0 0.0 0.0 0.00 0.15 0.03 63 1013.6
20260502163518 46 0 0.0 0.0 0.00 0.15 0.03 62 1013.6
20260502163042 47 0 0.0 0.0 0.00 0.15 0.03 62 1013.6
20260502162519 47 0 0.0 0.0 0.00 0.15 0.03 63 1013.6
20260502162018 46 0 0.0 0.0 0.00 0.15 0.03 66 1013.7
20260502161532 46 0 0.0 0.0 0.00 0.15 0.03 66 1013.6
20260502161018 46 0 0.0 0.0 0.00 0.15 0.03 66 1013.7
20260502160520 46 0 0.0 0.0 0.00 0.15 0.03 68 1013.7
20260502152017 45 0 0.0 0.0 0.00 0.15 0.03 63 1014.0
20260502151547 45 0 0.0 0.0 0.00 0.15 0.03 65 1014.0
20260502151020 45 0 0.0 0.0 0.00 0.15 0.03 64 1014.0
20260502150517 45 0 0.0 0.0 0.00 0.15 0.03 70 1013.9
20260502130518 42 0 0.0 0.0 0.00 0.15 0.03 83 1014.0
20260502123517 40 0 0.0 0.0 0.00 0.15 0.03 88 1014.2
20260502123038 40 0 0.0 0.0 0.00 0.15 0.03 88 1014.2
20260502122521 40 0 0.0 0.0 0.00 0.15 0.03 88 1014.2
20260502122017 41 0 0.0 0.0 0.00 0.15 0.03 89 1014.0
20260502121532 41 0 0.0 0.0 0.00 0.15 0.03 89 1013.9
20260502121019 41 0 0.0 0.0 0.00 0.15 0.03 89 1013.9
20260502120519 41 0 0.0 0.0 0.00 0.15 0.03 90 1013.9
20260502115518 41 0 0.0 0.0 0.00 0.15 0.03 93 1013.9
20260502115019 41 0 0.0 0.0 0.00 0.15 0.03 94 1013.9
20260502114534 41 0 0.0 0.0 0.00 0.15 0.03 94 1014.0
20260502114019 41 0 0.0 0.0 0.00 0.15 0.03 95 1013.9
20260502113521 41 0 0.0 0.0 0.00 0.15 0.03 95 1013.9
20260502113030 41 0 0.0 0.0 0.00 0.15 0.03 95 1013.9
20260502112515 40 0 0.0 0.0 0.00 0.15 0.03 95 1013.7
20260502112015 40 0 0.0 0.0 0.00 0.15 0.03 94 1013.7
20260502111533 40 0 0.0 0.0 0.00 0.15 0.03 94 1013.6
20260502111015 40 0 0.0 0.0 0.00 0.15 0.03 95 1013.5
20260502110515 40 0 0.0 0.0 0.00 0.15 0.03 95 1013.5
20260502110036 40 0 0.0 0.0 0.00 0.15 0.03 95 1013.5
20260502105522 40 0 0.0 0.0 0.00 0.15 0.03 95 1013.7
20260502105020 40 0 0.0 0.0 0.00 0.15 0.03 95 1013.5
20260502104537 40 0 0.0 0.0 0.00 0.15 0.03 96 1013.6
20260502104015 40 0 0.0 0.0 0.00 0.15 0.03 96 1013.5
20260502103518 40 0 0.0 0.0 0.00 0.15 0.03 96 1013.5
20260502103030 40 0 0.0 0.0 0.00 0.15 0.03 96 1013.4
20260502102520 40 0 0.0 0.0 0.00 0.15 0.03 96 1013.4
20260502102018 40 0 0.0 0.0 0.00 0.15 0.03 96 1013.4
20260502101532 40 0 0.0 0.0 0.00 0.15 0.03 96 1013.2
20260502101015 40 0 0.0 0.0 0.00 0.15 0.03 96 1013.2
20260502100515 40 0 0.0 0.0 0.00 0.15 0.03 96 1013.2
20260502091534 40 0 0.0 0.0 0.00 0.15 0.03 95 1012.7
20260502091017 40 0 0.0 0.0 0.00 0.15 0.03 95 1012.6
20260502090517 40 0 0.0 0.0 0.00 0.15 0.03 95 1012.6
20260502071015 39 0 0.0 0.0 0.00 0.15 0.03 95 1012.7
20260502070516 39 0 0.0 0.0 0.00 0.15 0.03 95 1012.7
20260502070039 39 0 0.0 0.0 0.00 0.15 0.03 95 1012.7
20260502065515 39 0 0.0 0.0 0.00 0.15 0.03 95 1012.7
20260502065017 39 0 0.0 0.0 0.00 0.15 0.03 94 1012.4
20260502064534 39 0 0.0 0.0 0.00 0.15 0.03 94 1011.9
20260502064021 39 0 0.0 0.0 0.00 0.15 0.03 94 1011.8
20260502063518 39 0 0.0 0.0 0.00 0.15 0.03 94 1012.0
20260502063033 39 0 0.0 0.0 0.00 0.15 0.03 94 1012.0
20260502062516 39 0 0.0 0.0 0.00 0.15 0.03 94 1012.0
20260502062017 39 0 0.0 0.0 0.00 0.15 0.03 94 1012.3
20260502061537 40 0 0.0 0.0 0.00 0.15 0.03 94 1012.2
20260502061017 40 0 0.0 0.0 0.00 0.15 0.03 94 1012.4
20260502060515 40 0 0.0 0.0 0.00 0.15 0.03 94 1012.4
20260502060032 40 0 0.0 0.0 0.00 0.15 0.03 94 1012.4
20260502055515 40 0 0.0 0.0 0.00 0.15 0.03 94 1012.5
20260502055015 40 0 0.0 0.0 0.00 0.15 0.03 94 1012.5
20260502054536 40 0 0.0 0.0 0.00 0.15 0.03 94 1012.6
20260502054021 40 0 0.0 0.0 0.00 0.15 0.03 94 1012.8
20260502053515 40 0 0.0 0.0 0.01 0.15 0.03 94 1012.9
20260502053037 40 0 0.0 0.0 0.01 0.15 0.03 94 1012.9
20260502052518 40 0 0.0 0.0 0.01 0.15 0.03 94 1012.9
20260502052018 40 0 0.0 0.0 0.01 0.15 0.03 94 1012.9
20260502051533 40 0 0.0 0.0 0.01 0.15 0.03 94 1013.0
20260502051018 40 0 0.0 0.0 0.02 0.15 0.03 94 1013.1
20260502050525 40 0 0.0 0.0 0.02 0.15 0.03 94 1013.1
20260502050030 40 0 0.0 0.0 0.02 0.15 0.03 94 1013.0
20260502045516 40 0 0.0 0.0 0.03 0.15 0.03 94 1012.9
20260502045017 40 0 0.0 0.0 0.03 0.15 0.03 94 1013.1
20260502044530 40 0 0.0 0.0 0.03 0.15 0.03 93 1012.9
20260502044017 40 0 0.0 0.0 0.04 0.15 0.03 93 1012.9
20260502043515 40 0 0.0 0.0 0.03 0.14 0.02 93 1012.9
20260502043031 41 0 0.0 0.0 0.03 0.14 0.02 93 1012.9
20260502042515 40 0 0.0 0.0 0.03 0.14 0.02 93 1012.7
20260502042018 41 0 0.0 0.0 0.03 0.14 0.02 93 1012.8
20260502041532 41 0 0.0 0.0 0.04 0.14 0.02 93 1012.9
20260502041015 41 0 0.0 0.0 0.03 0.13 0.01 93 1012.8
20260502040520 41 0 0.0 0.0 0.03 0.13 0.01 93 1012.9
20260502040037 41 0 0.0 0.0 0.02 0.12 0.00 93 1012.7
20260502035518 41 0 0.0 0.0 0.02 0.12 0.12 93 1012.7
20260502035021 41 0 0.0 0.0 0.02 0.12 0.12 93 1012.6
20260502034534 41 0 0.0 0.0 0.02 0.12 0.12 93 1012.6
20260502034018 41 0 0.0 0.0 0.01 0.11 0.11 93 1012.5
20260502033515 41 0 0.0 0.0 0.01 0.11 0.11 92 1012.4
20260502033033 41 0 0.0 0.0 0.01 0.11 0.11 92 1012.4
20260502032515 41 0 0.0 0.0 0.01 0.11 0.11 92 1012.5
20260502032025 41 0 0.0 0.0 0.01 0.11 0.11 92 1012.7
20260502031534 41 0 0.0 0.0 0.00 0.10 0.10 92 1012.5
20260502031016 41 0 0.0 0.0 0.01 0.10 0.10 92 1012.5
20260502030515 41 0 0.0 0.0 0.01 0.10 0.10 92 1012.7
20260502030032 41 0 0.0 0.0 0.02 0.10 0.10 91 1012.5
20260502025515 41 0 0.0 0.0 0.02 0.10 0.10 92 1012.6
20260502025017 41 0 0.0 0.0 0.02 0.10 0.10 91 1012.6
20260502024534 42 0 0.0 0.0 0.03 0.10 0.10 91 1012.6
20260502024020 42 0 0.0 0.0 0.03 0.10 0.10 92 1012.6
20260502023517 42 0 0.0 0.0 0.04 0.10 0.10 91 1012.5
20260502023031 42 0 0.0 0.0 0.04 0.10 0.10 91 1012.5
20260502022519 42 0 0.0 0.0 0.04 0.10 0.10 91 1012.6
20260502022018 42 0 0.0 0.0 0.04 0.10 0.10 91 1012.6
20260502021532 42 0 0.0 0.0 0.04 0.09 0.09 90 1012.5
20260502021021 42 0 0.0 0.0 0.04 0.09 0.09 90 1012.6
20260502020518 42 0 0.0 0.0 0.05 0.09 0.09 90 1012.6
20260502020032 43 0 0.0 0.0 0.04 0.08 0.08 91 1012.6
20260502015518 43 0 0.0 0.0 0.04 0.08 0.08 90 1012.6
20260502015018 43 0 0.0 0.0 0.04 0.08 0.08 90 1012.5
20260502014533 43 0 0.0 0.0 0.04 0.07 0.07 90 1012.6
20260502014017 43 0 0.0 0.0 0.03 0.06 0.06 90 1012.5
20260502013517 43 0 0.0 0.0 0.04 0.06 0.06 89 1012.5
20260502013031 43 0 0.0 0.0 0.04 0.06 0.06 89 1012.5
20260502012518 43 0 0.0 0.0 0.04 0.06 0.06 89 1012.3
20260502012017 44 0 0.0 0.0 0.04 0.05 0.05 88 1012.4
20260502011534 44 0 0.0 0.0 0.04 0.05 0.05 89 1012.3
20260502011017 44 0 0.0 0.0 0.04 0.05 0.05 90 1012.3
20260502010518 45 0 0.0 0.0 0.03 0.04 0.04 89 1012.2
20260502010033 45 0 0.0 0.0 0.03 0.04 0.04 89 1012.1
20260502005518 45 0 0.0 0.0 0.03 0.04 0.04 88 1012.1
20260502005021 45 0 0.0 0.0 0.03 0.04 0.04 88 1012.0
20260502004530 45 0 0.0 0.0 0.03 0.03 0.03 87 1012.1
20260502004017 45 0 0.0 0.0 0.03 0.03 0.03 87 1012.0
20260502003518 46 0 0.0 0.0 0.02 0.02 0.02 87 1012.0
20260502003031 46 0 0.0 0.0 0.02 0.02 0.02 86 1011.8
20260502002517 46 0 0.0 0.0 0.02 0.02 0.02 85 1011.8
20260502002017 46 0 0.0 0.0 0.01 0.01 0.01 84 1011.7
20260502001532 46 0 0.0 0.0 0.01 0.01 0.01 84 1011.6
20260502001018 46 0 0.0 0.0 0.01 0.01 0.01 82 1011.6
20260502000517 47 0 0.0 0.0 0.01 0.01 0.01 82 1011.5
20260502000039 47 0 0.0 0.0 0.01 0.01 0.01 82 1011.4
20260501235516 47 0 0.0 0.0 0.01 0.01 0.01 81 1011.4
20260501235017 47 0 0.0 0.0 0.01 0.01 0.01 79 1011.4
20260501234533 48 0 0.0 0.0 0.00 0.00 0.00 78 1011.4
20260501234017 48 0 0.0 0.0 0.00 0.00 0.00 77 1011.2
20260501233518 48 0 0.0 0.0 0.00 0.00 0.00 75 1011.3
20260501233030 49 0 0.0 0.0 0.00 0.00 0.00 73 1011.2
20260501232518 49 0 0.0 0.0 0.00 0.00 0.00 73 1011.2
20260501232019 49 0 0.0 0.0 0.00 0.00 0.00 70 1011.1
20260501231530 49 0 0.0 0.0 0.00 0.00 0.00 69 1011.2
20260501231017 50 0 0.0 0.0 0.00 0.00 0.00 67 1011.1
20260501230518 50 0 0.0 0.0 0.00 0.00 0.00 66 1011.1
20260501230032 50 0 0.0 0.0 0.00 0.00 0.00 66 1010.9
20260501225517 51 0 0.0 0.0 0.00 0.00 0.00 64 1011.0
20260501225018 51 0 0.0 0.0 0.00 0.00 0.00 64 1010.9
20260501224533 51 0 0.0 0.0 0.00 0.00 0.00 62 1010.8
20260501224018 51 0 0.0 0.0 0.00 0.00 0.00 63 1010.9
20260501223518 51 0 0.0 0.0 0.00 0.00 0.00 63 1010.9
20260501223035 51 0 0.0 0.0 0.00 0.00 0.00 60 1010.9
20260501222521 51 0 0.0 0.0 0.00 0.00 0.00 62 1010.9
20260501222018 51 0 0.0 0.0 0.00 0.00 0.00 60 1010.9
20260501221535 51 0 0.0 0.0 0.00 0.00 0.00 63 1010.8
20260501221017 51 0 0.0 0.0 0.00 0.00 0.00 61 1010.8
20260501220517 51 0 0.0 0.0 0.00 0.00 0.00 62 1010.9
20260501220035 51 0 0.0 0.0 0.00 0.00 0.00 63 1010.9
20260501215518 51 0 0.0 0.0 0.00 0.00 0.00 60 1011.0
20260501215018 52 0 0.0 0.0 0.00 0.00 0.00 59 1010.9
20260501214535 52 0 0.0 0.0 0.00 0.00 0.00 57 1010.8
20260501214017 52 0 0.0 0.0 0.00 0.00 0.00 58 1010.8
20260501213518 52 0 0.0 0.0 0.00 0.00 0.00 56 1010.7
20260501213038 53 0 0.0 0.0 0.00 0.00 0.00 55 1010.7
20260501212517 53 0 0.0 0.0 0.00 0.00 0.00 58 1010.7
20260501212018 53 0 0.0 0.0 0.00 0.00 0.00 54 1010.6
20260501211539 53 0 0.0 0.0 0.00 0.00 0.00 53 1010.6
20260501211017 53 0 0.0 0.0 0.00 0.00 0.00 50 1010.4
20260501210520 53 0 0.0 0.0 0.00 0.00 0.00 52 1010.5
20260501210030 53 0 0.0 0.0 0.00 0.00 0.00 56 1010.5
20260501205520 53 0 0.0 0.0 0.00 0.00 0.00 53 1010.5
20260501205019 53 0 0.0 0.0 0.00 0.00 0.00 51 1010.4
20260501204557 54 0 0.0 0.0 0.00 0.00 0.00 51 1010.5
20260501204015 54 0 0.0 0.0 0.00 0.00 0.00 49 1010.5
20260501203515 54 0 0.0 0.0 0.00 0.00 0.00 49 1010.5
20260501203032 54 0 0.0 0.0 0.00 0.00 0.00 53 1010.5
20260501202515 54 0 0.0 0.0 0.00 0.00 0.00 51 1010.5
20260501202015 55 0 0.0 0.0 0.00 0.00 0.00 51 1010.3
20260501201530 55 0 0.0 0.0 0.00 0.00 0.00 51 1010.5
20260501201017 55 0 0.0 0.0 0.00 0.00 0.00 54 1010.5
20260501200516 55 0 0.0 0.0 0.00 0.00 0.00 54 1010.5
20260501200040 56 0 0.0 0.0 0.00 0.00 0.00 46 1010.5
20260501195516 56 0 0.0 0.0 0.00 0.00 0.00 48 1010.5
20260501195018 55 0 0.0 0.0 0.00 0.00 0.00 51 1010.5
20260501194533 55 0 0.0 0.0 0.00 0.00 0.00 51 1010.4
20260501194015 54 0 0.0 0.0 0.00 0.00 0.00 55 1010.7
20260501193517 54 0 0.0 0.0 0.00 0.00 0.00 52 1010.7
20260501193033 54 0 0.0 0.0 0.00 0.00 0.00 52 1010.8
20260501192515 54 0 0.0 0.0 0.00 0.00 0.00 49 1010.8
20260501192016 54 0 0.0 0.0 0.00 0.00 0.00 51 1010.7
20260501191532 55 0 0.0 0.0 0.00 0.00 0.00 49 1010.9
20260501191016 55 0 0.0 0.0 0.00 0.00 0.00 48 1010.8
20260501190522 54 0 0.0 0.0 0.00 0.00 0.00 52 1010.9
20260501190029 54 0 0.0 0.0 0.00 0.00 0.00 53 1011.1
20260501185516 54 0 0.0 0.0 0.00 0.00 0.00 54 1011.0
20260501185019 53 0 0.0 0.0 0.00 0.00 0.00 50 1011.1
20260501184532 53 0 0.0 0.0 0.00 0.00 0.00 50 1011.0
20260501184015 53 0 0.0 0.0 0.00 0.00 0.00 49 1011.1
20260501183515 53 0 0.0 0.0 0.00 0.00 0.00 53 1011.2
20260501183032 53 0 0.0 0.0 0.00 0.00 0.00 50 1011.2
20260501182518 54 0 0.0 0.0 0.00 0.00 0.00 53 1011.1
20260501182015 54 0 0.0 0.0 0.00 0.00 0.00 51 1011.0
20260501181537 54 0 0.0 0.0 0.00 0.00 0.00 49 1011.2
20260501181019 54 0 0.0 0.0 0.00 0.00 0.00 51 1011.2
20260501180515 54 0 0.0 0.0 0.00 0.00 0.00 52 1011.2
20260501180035 54 0 0.0 0.0 0.00 0.00 0.00 51 1011.4
20260501175516 54 0 0.0 0.0 0.00 0.00 0.00 53 1011.4
20260501175022 55 0 0.0 0.0 0.00 0.00 0.00 50 1011.3
20260501174542 55 0 0.0 0.0 0.00 0.00 0.00 51 1011.2
20260501174017 55 0 0.0 0.0 0.00 0.00 0.00 48 1011.1
20260501173517 55 0 0.0 0.0 0.00 0.00 0.00 53 1011.1
20260501173037 56 0 0.0 0.0 0.00 0.00 0.00 48 1011.3
20260501172520 56 0 0.0 0.0 0.00 0.00 0.00 55 1011.5
20260501172016 56 0 0.0 0.0 0.00 0.00 0.00 57 1011.5
20260501171534 55 0 0.0 0.0 0.00 0.00 0.00 54 1011.5